Weather History for New Orleans Lakefront, LA

Change the Weather History Date:

Tuesday, November 13, 2012

  Actual Average Record
Temperature  
Mean Temperature 52 °F 63 °F  
Max Temperature 59 °F 73 °F 83 °F (1955)
Min Temperature 45 °F 54 °F 28 °F (1968)
Degree Days  
Heating Degree Days 13 4  
Month to date heating degree days 46 40  
Since 1 July heating degree days 73 65  
Cooling Degree Days 0 2  
Month to date cooling degree days 36 40  
Year to date cooling degree days 3374 2949  
Growing Degree Days 2 (Base 50)    
Moisture  
Dew Point 35 °F    
Average Humidity 51    
Maximum Humidity 66    
Minimum Humidity 36    
Precipitation  
Precipitation 0.00 in 0.14 in 5.37 in (1961)
Month to date precipitation 1.46 1.82  
Year to date precipitation 62.11 54.54  
Snow  
Snow 0.00 in - - ()
Month to date snowfall 0.0  
Since 1 July snowfall 0.0  
Since 1 September snowfall 0.0  
Snow Depth 0.00 in    
Sea Level Pressure  
Sea Level Pressure 30.33 in    
Wind  
Wind Speed 16 mph (NNE)    
Max Wind Speed 25 mph    
Max Gust Speed 33 mph    
Visibility 10 miles    
Events      
T = Trace of Precipitation, MM = Missing Value Source: NWS Daily Summary

Daily Weather History Graph

Daily Weather History Graph

Search for Another Location

Airport:

Trip Planner

Search our weather history database for the weather conditions in past years. The results will help you decide how hot, cold, wet, or windy it might be!

Date:

Astronomy

Nov. 13, 2012 Rise Set
Actual Time 6:24 AM CST 5:04 PM CST
Civil Twilight 5:58 AM CST 5:29 PM CST
Nautical Twilight 5:29 AM CST 5:58 PM CST
Astronomical Twilight 5:01 AM CST 6:27 PM CST
Moon 6:01 AM CST (11/13) 4:59 PM CST (11/13)
Length of Visible Light 11h 31m
Length of Day
10h 40m
Waning Crescent, 0% of the Moon is Illuminated
Nov 13
Waning Crescent
Nov 13
New
Nov 20
First Quarter
Nov 28
Full
Dec 6
Last Quarter

Hourly Weather History & Observations

Time (CST) Temp. Windchill Dew Point Humidity Pressure Visibility Wind Dir Wind Speed Gust Speed Precip Events Conditions
12:53 AM 51.1 °F - 39.9 °F 66% 30.36 in 10.0 mi NE 20.7 mph - N/A   Clear
1:53 AM 50.0 °F - 39.0 °F 66% 30.36 in 10.0 mi NNE 23.0 mph 29.9 mph N/A   Clear
2:53 AM 48.2 °F - 39.2 °F 71% 30.38 in 10.0 mi NNE 23.0 mph 29.9 mph N/A   Clear
3:53 AM 48.0 °F - 37.0 °F 66% 30.36 in 10.0 mi NE 26.5 mph 31.1 mph N/A   Clear
4:53 AM 46.9 °F - 36.0 °F 66% 30.37 in 10.0 mi NNE 26.5 mph 32.2 mph N/A   Clear
5:53 AM 46.0 °F 37.8 °F 35.1 °F 66% 30.39 in 10.0 mi NE 23.0 mph - N/A   Clear
6:53 AM 46.0 °F 37.8 °F 35.1 °F 66% 30.39 in 10.0 mi NE 23.0 mph 29.9 mph N/A   Clear
7:53 AM 48.0 °F - 35.1 °F 61% 30.40 in 10.0 mi NE 19.6 mph 29.9 mph N/A   Clear
8:53 AM 50.0 °F - 33.1 °F 52% 30.40 in 10.0 mi NE 23.0 mph 29.9 mph N/A   Clear
9:53 AM 52.0 °F - 30.9 °F 45% 30.40 in 10.0 mi NE 18.4 mph 28.8 mph N/A   Clear
10:53 AM 54.0 °F - 30.9 °F 41% 30.38 in 10.0 mi NNE 15.0 mph - N/A   Clear
11:53 AM 55.9 °F - 30.9 °F 39% 30.33 in 10.0 mi NNE 15.0 mph - N/A   Clear
12:53 PM 57.9 °F - 33.1 °F 39% 30.30 in - North - - N/A   Clear
1:53 PM - - - N/A% 30.28 in 10.0 mi North - - N/A   Clear
2:53 PM 57.9 °F - 34.0 °F 41% 30.26 in 10.0 mi North 11.5 mph - N/A   Clear
3:53 PM 57.9 °F - 34.0 °F 41% 30.26 in 10.0 mi North 15.0 mph - N/A   Clear
4:53 PM 55.9 °F - 36.0 °F 47% 30.27 in 10.0 mi North 16.1 mph - N/A   Clear
5:53 PM 55.9 °F - 35.1 °F 45% 30.27 in 10.0 mi North 15.0 mph - N/A   Clear
6:53 PM 57.0 °F - 36.0 °F 45% 30.30 in 10.0 mi North 18.4 mph - N/A   Clear
7:53 PM 55.9 °F - 35.1 °F 45% 30.30 in 10.0 mi NNE 20.7 mph - N/A   Clear
8:53 PM 55.9 °F - 37.0 °F 49% 30.30 in 10.0 mi NNE 19.6 mph - N/A   Clear
9:53 PM 55.0 °F - 37.0 °F 51% 30.30 in 10.0 mi NE 18.4 mph 26.5 mph N/A   Clear
10:53 PM 54.0 °F - 36.0 °F 51% 30.29 in 10.0 mi NE 19.6 mph - N/A   Clear
11:53 PM 53.1 °F - 34.0 °F 48% 30.28 in 10.0 mi NE 19.6 mph - N/A   Clear